Location: Newark
(43.6583°N, 1.6617°E)
Time: 08:17:56
(UTC+00:00)

Tiros 1 - Pass Details

Date: 01 September 2019
Orbit: 631 x 664 km, 48.4° (Epoch: 16 September)

Event Time Altitude Azimuth Distance (km) Brightness Sun altitude
Rises 22:55:18 0° 282° (WNW) 2,918 10.9 -36.6°
Enters shadow 22:56:31 - 285° (WNW) 2,452 10.5 -36.7°
Reaches altitude 10° 22:57:42 10° 288° (WNW) 2,010 - -36.7°
Maximum altitude 23:02:09 46° 2° (N) 849 - -36.9°
Drops below altitude 10° 23:06:37 10° 77° (ENE) 2,015 - -37.2°
Sets 23:09:02 0° 83° (E) 2,927 - -37.3°
